Location: Barrio Colonia Alfar
(40.4514°N, 3.7944°W)
Time: 05:46:03
(UTC+00:00)

Daily predictions for brighter satellites

Satellite Brightness Start Highest point End
(mag) Time Altitude Azimuth Time Altitude Azimuth Time Altitude Azimuth
Gbstr 26 Del rocket 4.1 00:01:48 10° NW 00:07:33 69° NE 00:09:37 45° E
Cosmos 2227 Rocket 2.8 00:03:17 10° NNW 00:08:47 48° ENE 00:09:27 46° E
S3M 4.0 00:09:10 10° NNW 00:15:23 64° W 00:15:45 62° WSW
GEOS 3 Rocket 4.2 00:11:25 10° NNE 00:16:32 52° NW 00:17:32 46° W
Cosmos 1655 Rocket 4.0 00:25:42 69° SW 00:26:17 74° W 00:32:41 10° N
Cosmos 1125 Rocket 3.7 00:30:24 67° NE 00:30:24 67° NE 00:35:04 10° NNE
Cosmos 1315 Rocket 4.4 00:28:03 10° N 00:30:17 33° N 00:30:17 33° N
Cosmos 1932 4.3 00:31:36 73° WSW 00:32:09 81° WNW 00:38:33 10° NNE
Geosat 4.1 00:32:03 10° NNE 00:36:36 73° NNE 00:36:36 73° NNE
ALOS 2 4.5 00:38:29 22° WNW 00:38:29 22° WNW 00:40:45 10° NW
H-2A R/B 4.4 00:41:17 21° ENE 00:41:17 21° ENE 00:43:54 10° NNE
Cosmos 1048 Rocket 4.3 00:37:41 10° NNW 00:42:19 60° WNW 00:42:19 60° WNW
Cosmos 2058 Rocket 3.8 00:40:42 10° N 00:44:04 51° N 00:44:04 51° N
Nadezhda 2 Rocket 4.4 00:47:03 72° SSE 00:47:39 79° E 00:54:04 10° N
Cosmos 614 Rocket 4.5 00:43:49 10° N 00:48:44 49° ENE 00:48:55 49° ENE
Cosmos 2263 Rocket 2.4 00:52:23 10° NNW 00:57:59 61° ENE 00:58:42 56° E
USA 32 4.4 01:00:07 54° E 01:00:07 54° E 01:05:10 10° NNE
Cosmos 2369 3.8 01:01:32 65° ESE 01:01:32 65° ESE 01:07:02 10° NNE
CZ-2C R/B 3.1 00:59:50 10° NNE 01:04:01 64° NE 01:04:01 64° NE
Cosmos 1602 Rocket 4.4 01:07:34 44° NE 01:07:34 44° NE 01:10:57 10° NNE
Cosmos 2298 Rocket 4.2 01:07:44 64° E 01:07:44 64° E 01:12:46 10° NNE
Cosmos 1758 Rocket 4.1 01:09:37 57° NNE 01:09:37 57° NNE 01:13:11 10° N
Cosmos 1626 Rocket 4.2 01:11:27 52° NNW 01:11:27 52° NNW 01:14:54 10° N
SL-16 R/B 3.4 01:13:38 28° ESE 01:14:00 29° ESE 01:18:47 10° NE
Cosmos 2333 Rocket 4.0 01:15:34 18° ESE 01:16:27 18° E 01:20:12 10° ENE
Cosmos 2297 Rocket 4.0 01:15:47 10° WNW 01:18:18 17° W 01:18:18 17° W
Cosmos 2219 3.2 01:14:22 10° NNW 01:20:04 76° ENE 01:20:47 66° ESE
ATLAS 2AS CENTAUR R/B 2.7 01:19:20 10° NNW 01:26:06 75° NE 01:29:12 34° SE
Cosmos 1980 Rocket 2.7 01:25:56 45° W 01:26:38 47° WNW 01:32:03 10° NNE
USA 215 3.3 01:30:25 53° SW 01:30:25 53° SW 01:36:38 10° NW
Cosmos 921 Rocket 3.5 01:27:02 10° N 01:31:10 56° ENE 01:31:10 56° ENE
Cosmos 2151 3.4 01:35:22 57° NE 01:35:22 57° NE 01:38:48 10° NNE
Cosmos 1386 Rocket 4.4 01:34:46 60° WSW 01:35:37 67° W 01:41:42 10° N
NPP 4.3 01:31:30 10° NNE 01:36:38 43° E 01:37:31 40° SE
CZ-2C R/B 2.7 01:37:53 62° WSW 01:38:01 62° W 01:43:34 10° NNW
Lacrosse 5 rocket 2.6 01:34:57 10° NW 01:37:12 32° NNW 01:37:12 32° NNW
Resurs 1-4 Rocket 3.7 01:42:14 10° NE 01:46:38 26° E 01:48:25 22° SE
Cosmos 2227 Rocket 3.7 01:48:04 10° NW 01:51:13 22° W 01:51:13 22° W
Cosmos 1844 Rocket 4.1 01:48:38 10° N 01:53:47 36° ENE 01:58:52 10° SE
Cosmos 1238 Rocket 3.1 01:51:22 10° N 01:56:31 88° W 01:56:48 80° S
Cosmos 2237 4.1 01:58:13 61° SW 01:59:13 77° WNW 02:04:56 10° NNE
CZ-2D R/B 3.4 01:55:39 10° NE 02:00:14 31° E 02:02:07 24° SE
IDEFIX/ARIANE 42P 2.4 01:56:10 10° NNE 02:01:22 86° ESE 02:02:09 65° S
Meteor 1-19 Rocket 4.3 01:57:04 10° N 02:02:38 74° E 02:04:33 43° SSE
Cosmos 1953 Rocket 3.7 02:04:16 61° ESE 02:04:33 62° E 02:08:49 10° NNE
Cosmos 2360 Rocket 3.2 02:03:03 31° SE 02:04:41 37° ESE 02:09:48 10° NE
H-2A R/B 2.8 02:00:54 10° NNE 02:04:59 43° E 02:05:29 41° ESE
Cosmos 2221 3.0 02:01:24 10° NNW 02:04:55 48° WNW 02:04:55 48° WNW
SeaSat 1 4.0 02:02:21 10° ESE 02:06:43 33° NE 02:11:05 10° N
Cosmos 2278 3.6 02:08:06 56° S 02:09:20 83° ESE 02:15:00 10° NNE
Cosmos 1346 Rocket 3.0 02:09:58 61° N 02:09:58 61° N 02:13:06 10° N
Cosmos 1733 4.2 02:14:22 33° NE 02:14:22 33° NE 02:16:27 10° NNE
H-2A R/B 4.2 02:16:38 19° WNW 02:16:38 19° WNW 02:18:19 10° NW
Cosmos 2219 Rocket 3.7 02:16:52 19° SE 02:19:29 27° ESE 02:24:07 10° NE
Molniya-1 3.4 02:19:20 64° WNW 02:19:35 67° NW 02:25:28 10° NNE
Cosmos 1269 Rocket 4.2 02:15:26 10° NNW 02:20:44 72° ENE 02:23:36 27° SSE
Cosmos 1825 Rocket 4.0 02:22:59 44° W 02:23:02 44° WNW 02:27:13 10° N
CENTAUR R/B 2.2 02:24:36 48° SSW 02:26:15 88° ESE 02:32:54 10° NE
Cosmos 2322 Rocket 2.3 02:24:50 42° S 02:26:41 68° ESE 02:32:17 10° NNE
H-2A R/B 4.5 02:25:45 10° ENE 02:27:45 12° E 02:29:43 10° ESE
MOZ.5/SAFIR/RUBIN 5/SL-8 3.6 02:30:29 55° SSW 02:31:23 71° WSW 02:36:04 10° NNW
OAO 3 Rocket 3.6 02:33:03 41° SSE 02:33:03 41° SSE 02:37:02 10° ESE
ADEOS II 2.9 02:28:11 10° NNE 02:33:12 44° E 02:35:56 24° SSE
ATLAS 5 CENTAUR R/B 2.6 02:29:38 10° NNW 02:34:14 56° NE 02:39:55 10° SE
ALOS 3.1 02:31:17 10° NNE 02:35:38 42° E 02:37:41 26° SSE
Meteor 1-25 Rocket 4.3 02:36:57 41° SW 02:38:46 62° WNW 02:44:25 10° N
NOSS 3-2 (A) 3.6 02:37:39 34° SSE 02:39:22 48° ESE 02:44:44 10° NE
Cosmos 2263 Rocket 3.9 02:37:42 10° WNW 02:40:19 17° W 02:40:19 17° W
Envisat 3.7 02:42:01 10° NNE 02:46:56 49° E 02:49:58 22° SSE
Meteor 1-27 Rocket 3.8 02:42:46 10° NNW 02:48:40 67° W 02:51:36 30° S
Milstar 3 Cent rocket 3.8 02:49:25 22° S 02:49:31 22° S 02:53:46 10° SE
USA 276 3.6 02:51:56 24° NW 02:52:13 24° NNW 02:54:27 10° NE
SL-16 R/B 3.9 02:48:24 10° SE 02:54:06 39° ENE 02:59:51 10° N
Cosmos 2181 Rocket 3.9 02:49:39 10° NNW 02:55:43 65° W 02:59:11 26° SSW
NOAA 11 4.2 02:51:37 10° NNE 02:57:05 76° ESE 03:00:17 25° S
SL-16 R/B 3.0 02:55:28 27° WSW 02:57:52 40° WNW 03:03:12 10° N
FENGYUN 3A 4.1 02:52:46 10° N 02:57:57 49° WNW 03:00:12 31° SW
Uosat 12 SS-18 rocket 4.1 02:57:37 40° SW 02:59:02 68° NW 03:03:39 10° NNE
Cosmos 2333 Rocket 2.4 02:57:35 32° SW 03:00:10 61° WNW 03:05:48 10° NNE
Cosmos 1743 4.3 03:01:59 17° WNW 03:01:59 17° WNW 03:03:58 10° NNW
CZ-3 R/B 4.4 02:10:25 10° WSW 03:02:30 59° SSW 03:15:32 10° ESE
Cosmos 1842 Rocket 3.7 02:58:15 10° NNW 03:02:32 54° W 03:03:56 37° SSW
Cosmos 1707 2.3 03:02:01 10° NNW 03:05:15 58° W 03:05:36 54° SW
Cosmos 44 Rocket 4.4 03:03:42 23° W 03:05:43 32° NW 03:09:59 10° NNE
Cosmos 1295 Rocket 4.5 03:03:44 27° SSW 03:07:08 66° W 03:13:18 10° N
Meteor 1-5 Rocket 4.5 03:08:04 28° SW 03:10:54 53° WNW 03:16:23 10° N
Meteor 2-4 Rocket 3.5 03:06:17 10° NNW 03:11:37 70° W 03:15:34 18° S
KORONAS-FOTON 4.3 03:12:24 10° NNW 03:15:37 34° W 03:15:57 33° WSW
ATLAS 2AS CENTAUR R/B 3.8 03:11:39 10° WNW 03:16:14 20° WSW 03:16:31 20° WSW
Cosmos 1066 Rocket 4.1 03:13:56 10° N 03:19:19 86° E 03:24:40 10° S
CZ-2C R/B 4.4 03:19:19 10° NE 03:23:33 26° E 03:27:48 10° SSE
Cosmos 1140 Rocket 4.0 03:20:01 10° NW 03:24:47 39° WSW 03:27:52 20° SSW
COSMOS 2428 4.0 03:19:41 10° S 03:24:49 35° ESE 03:29:58 10° NE
Cosmos 1842 3.6 03:21:46 10° NNW 03:24:55 35° W 03:25:37 31° WSW
Resurs 1-4 Rocket 2.8 03:21:33 10° N 03:26:28 39° WNW 03:29:27 21° SW
Nadezhda 3 Rocket 3.9 03:20:53 10° N 03:27:05 74° W 03:33:11 10° S
AQUA 3.8 03:22:41 10° NNE 03:27:24 84° ESE 03:31:04 17° SSW
SJ 16-02 4.0 03:29:33 10° NNE 03:32:53 21° ENE 03:36:11 10° ESE
Cosmos 1536 2.8 03:33:09 14° S 03:36:15 69° E 03:39:58 10° NNE
METEOR-M 4.1 03:32:05 10° NNE 03:37:27 86° ESE 03:42:29 12° SSW
Cosmos 1844 Rocket 3.4 03:32:38 10° NW 03:37:32 32° WSW 03:41:29 14° SSW
Cosmos 1151 Rocket 2.9 03:34:01 10° NNW 03:38:19 74° W 03:42:33 10° S
ATLAS CENTAUR R/B 1.2 03:37:04 21° SSW 03:39:23 71° ESE 03:43:08 10° NE
Cosmos 407 Rocket 3.6 03:34:53 10° NNW 03:40:01 55° WSW 03:45:10 10° S
H-2A R/B 3.9 03:37:18 10° NNW 03:40:02 17° WNW 03:41:58 13° W
CZ-2D R/B 3.1 03:35:36 10° N 03:40:09 32° WNW 03:43:22 17° WSW
Cosmos 1844 4.4 03:37:04 10° NW 03:42:08 33° WSW 03:47:12 10° SSW
SeaSat 1 3.1 03:40:07 12° S 03:44:02 32° WSW 03:48:24 10° NW
Cosmos 2327 Rocket 4.4 03:41:15 10° SSW 03:47:17 76° W 03:53:27 10° N
Cosmos 2360 Rocket 3.3 03:44:48 15° WSW 03:48:40 31° WNW 03:53:39 10° N
ARIANE 6 FM1 Upper Stage 3.1 03:46:47 18° WSW 03:49:28 45° NW 03:53:20 10° NNE
Delta 2 Rocket 3.8 03:50:48 15° WSW 03:53:59 41° S 03:57:58 10° ESE
ARGOS 4.4 03:50:33 10° NNE 03:55:38 40° E 04:00:42 10° SSE
NOSS 2-2 (C) 2.9 03:55:15 17° SW 03:57:46 61° NW 04:00:47 10° NNE
Cosmos 2084 Rocket 4.5 03:55:03 10° S 03:59:01 40° ESE 04:03:00 10° NE
Cosmos 405 Rocket 2.7 03:57:45 15° SSW 04:00:09 43° WNW 04:03:16 10° N
Cosmos 2219 Rocket 2.8 03:58:35 13° SW 04:03:10 41° WNW 04:08:26 10° N
H-2A R/B 3.2 04:02:26 10° NNE 04:06:20 84° WNW 04:10:10 10° SSW
Meteor 1-28 Rocket 2.9 04:03:35 10° S 04:06:52 56° W 04:10:11 10° NNW
H-2A R/B 1.9 04:02:40 10° N 04:07:33 68° WNW 04:12:23 10° SSW
Iridium 4 Rocket 3.8 04:04:05 10° S 04:09:51 88° W 04:15:22 10° N
Cosmos 1766 Rocket 3.5 04:05:40 10° S 04:09:57 86° E 04:14:16 10° N
BREEZE M DEB (TANK) 4.3 04:07:05 10° NW 04:10:24 20° N 04:12:22 10° NE
Cosmos 2322 Rocket 3.9 04:07:18 10° W 04:11:15 19° NW 04:15:11 10° N
ALOS 3.9 04:09:06 10° NNW 04:12:18 19° WNW 04:15:30 10° WSW
ADEOS II 3.5 04:08:23 10° NNW 04:12:26 23° WNW 04:16:29 10° WSW
Meteor 2-9 Rocket 4.4 04:06:40 10° S 04:12:32 85° E 04:18:23 10° N
In-Cosmos 22 4.1 04:08:08 10° NNW 04:13:25 69° W 04:18:47 10° S
Cosmos 1954 Rocket 3.9 04:08:42 10° NNW 04:13:53 74° WSW 04:19:04 10° S
Lacrosse 4 Rocket 2.3 04:10:08 10° S 04:13:58 44° ESE 04:17:55 10° NE
Cosmos 676 Rocket 4.1 04:08:49 10° NNW 04:14:00 84° ENE 04:19:12 10° SSE
COSMOS 2455 4.3 04:09:40 10° S 04:15:01 35° ESE 04:20:25 10° NE
OAO 3 Rocket 3.8 04:10:59 10° WSW 04:15:17 35° SSW 04:19:31 10° SE
TIMED 4.4 04:12:33 10° NNW 04:16:50 84° WSW 04:21:05 10° SSE
ATLAS 5 CENTAUR R/B 3.2 04:13:06 10° WNW 04:16:59 22° WSW 04:21:27 10° SSW
CENTAUR R/B 4.3 04:13:22 10° W 04:17:57 22° NNW 04:23:18 10° NNE
USA 281 4.2 04:12:12 10° NE 04:18:31 47° ESE 04:24:47 10° S
NOSS 3-2 (C) 3.2 04:15:31 10° SW 04:20:28 69° NW 04:26:19 10° NNE
UNK 3.7 04:16:08 10° SSE 04:20:39 82° WSW 04:25:14 10° NNW
Cosmos 1821 Rocket 4.3 04:15:19 10° S 04:21:23 74° E 04:27:35 10° N
Cosmos 2251 Rocket 4.1 04:18:03 10° NW 04:22:52 36° WSW 04:27:37 10° SSW
ACS3 Solar Sail 3.7 04:18:32 10° NE 04:23:41 29° E 04:28:55 10° SSE
Okean 3 Rocket 4.5 04:20:37 10° S 04:24:59 53° E 04:29:23 10° NNE
Cosmos 2218 Rocket 4.1 04:23:52 10° SSW 04:30:00 63° W 04:36:06 10° N
BREEZE-M DEB (TANK) 2.8 04:25:15 10° SW 04:31:30 89° SSE 04:34:04 10° ENE
